Regional Weather Roundup
Issued by NWS

Home | Current Version | Previous Version | Graphics & Text | Print | Product List | Glossary Off
Versions: 1 2 3 4 5 6 7 8 9 10 11 12 13 14 15 16 17 18 19 20 21 22 23 24 25 26 27 28 29 30 31 32 33 34 35 36 37 38 39 40 41 42 43 44 45 46 47 48 49 50

000
ASUS43 KMKX 300421
RWRWI

WISCONSIN REGIONAL WEATHER ROUNDUP
NATIONAL WEATHER SERVICE MILWAUKEE/SULLIVAN WI
1100 PM CDT FRI AUG 29 2014

NOTE: "FAIR" INDICATES FEW OR NO CLOUDS BELOW 12,000 FEET WITH NO
SIGNIFICANT WEATHER AND/OR OBSTRUCTIONS TO VISIBILITY.

WIZ001-002-006>008-014>016-023>028-300500-
NORTHWEST WISCONSIN

CITY           SKY/WX    TMP DP  RH WIND       PRES   REMARKS
SUPERIOR ARPT  CLOUDY    61  61  99 E3        29.79S
ASHLAND        CLOUDY    66  65  96 CALM      29.79S FOG
HAYWARD        LGT RAIN  65  64  97 CALM      29.80R
SIREN          RAIN      67  66  97 CALM      29.78F
RICE LAKE      RAIN      65  63  95 CALM      29.80F
LADYSMITH      DRIZZLE   66  64  96 CALM      29.81F
EAU CLAIRE     LGT RAIN  67  66  97 N5        29.78S
MENOMONIE      HVY RAIN  68  67  98 CALM      29.81R
NEW RICHMOND   LGT RAIN  65  65  99 SE3       29.79S
OSCEOLA        LGT RAIN  68  68 100 CALM      29.81S
$$

WIZ003>005-009-010-017-018-300500-
NORTH CENTRAL WISCONSIN

CITY           SKY/WX    TMP DP  RH WIND       PRES   REMARKS
WOODRUFF       LGT RAIN  64  63  94 CALM      29.84S
RHINELANDER    LGT RAIN  64  63  96 W3        29.85R
EAGLE RIVER    LGT RAIN  63  63 100 CALM      29.84R
LAND O LAKES   DRIZZLE   64  63  99 CALM      29.84S
PHILLIPS       RAIN      64  64  99 S3        29.81S
TOMAHAWK       LGT RAIN  64  63  97 CALM      29.83F
MEDFORD        CLOUDY    63  63  99 CALM      29.83R
MERRILL        LGT RAIN  65  65 100 CALM      29.83S
$$

WIZ029-030-035-036-043>047-300500-
CENTRAL WISCONSIN

CITY           SKY/WX    TMP DP  RH WIND       PRES   REMARKS
WAUSAU         LGT RAIN  66  65  96 CALM      29.82F
MOSINEE        LGT RAIN  64  64 100 CALM      29.83F
MARSHFIELD     LGT RAIN  67  65  93 CALM      29.81S
STEVENS POINT  TSTM      65  64  96 E5        29.81F
WAUPACA        CLOUDY    74  72  92 CALM      29.80F
WAUTOMA        CLOUDY    76  71  84 S8        29.79F
WISC RAPIDS    CLOUDY    67  67 100 W3        29.80F
CAMP DOUGLAS   LGT RAIN  68  68 100 CALM      29.80F
$$

WIZ011>013-019>022-031-037>040-048>050-300500-
NORTHEAST WISCONSIN

CITY           SKY/WX    TMP DP  RH WIND       PRES   REMARKS
ANTIGO         HVY RAIN  64  64  99 SE6       29.86S
STURGEON BAY   CLOUDY    70  66  88 S13       29.83S
GREEN BAY      PTCLDY    73  71  93 S7        29.81F FOG
MANITOWOC      MOCLDY    71  69  93 S13       29.84F FOG
APPLETON       MOCLDY    73  72  94 S8        29.82S
CLINTONVILLE   MOCLDY    72  68  88 NE3       29.80F
OSHKOSH        MOCLDY    74  71  91 S10       29.81F
$$

WIZ032>034-041-042-053>061-300500-
SOUTHWEST WISCONSIN

CITY           SKY/WX    TMP DP  RH WIND       PRES   REMARKS
LA CROSSE      CLOUDY    70  67  90 E9        29.77F
SPARTA         CLOUDY    67  66  96 CALM      29.78F
VIROQUA        CLOUDY    67  67 100 SE5       29.80F
BOSCOBEL       LGT RAIN  71  67  87 SW6       29.79R
PRAIRIE DU CHI HVY RAIN  72  66  83 CALM      29.78S
PLATTEVILLE    FAIR      73  71  96 S5        29.82S
$$

WIZ056-057-062-063-064-067-068-300500-
SOUTH CENTRAL WISCONSIN

CITY           SKY/WX    TMP DP  RH WIND       PRES   REMARKS
BARABOO/DELLS  CLOUDY    76  68  78 S9        29.79F
LONE ROCK      LGT RAIN  74  68  81 NW5       29.80R
WATERTOWN      CLOUDY    73  67  80 SE7       29.84R
MADISON        CLOUDY    77  68  73 S13       29.81F
MIDDLETON      FAIR      78  66  67 S9        29.82S HX  80
MONROE         CLOUDY    72  64  78 S9        29.84R
JANESVILLE     CLOUDY    72  64  78 SE8       29.83F
$$

WIZ051-052-058>065-066-070>072-300500-
SOUTHEAST WISCONSIN

CITY           SKY/WX    TMP DP  RH WIND       PRES   REMARKS
MILWAUKEE      CLOUDY    76  69  79 S13       29.87S THUNDER
WAUKESHA       CLOUDY    68  66  94 SE3       29.87F
MILWAUKEE/TIMM RAIN      73  70  88 S8        29.87R
RACINE         CLOUDY    75  69  81 S12G21    29.88F
BURLINGTON     CLOUDY    69  67  92 SE3       29.86F
KENOSHA        CLOUDY    75  71  87 SW7       29.87F
FOND DU LAC    MOCLDY    75  70  84 S13       29.83S
SHEBOYGAN      PTCLDY    72  70  93 S8        29.85S FOG
WEST BEND      LGT RAIN  73  68  83 S13       29.85S
JUNEAU         MOCLDY    73  70  89 SE10      29.85R
$$

LSZ147-162-300500-
LAKE SUPERIOR

STATION/POSITION TIME  TEMP    WIND        PRES    WAVE
                       AIR SEA DIR/SP/G            HT/PER
                 (UTC) (F)     (DEG/KT/KT) (MB)    (FT/S)
W MID LAKE BUOY  0350   58 57   10/  6/  6 1008.4R   0
DEVILS ISLAND    0400   60      20/  6/  7 1008.8R
PORT WING        0300   62      10/  9/ 10 1009.1
SAXON HARBOR     0300   66      CALM  /  1 1008.5R
$$

LMZ867-665-643>646-300500-
LAKE MICHIGAN

STATION/POSITION TIME  TEMP    WIND        PRES    WAVE
                       AIR SEA DIR/SP/G            HT/PER
                 (UTC) (F)     (DEG/KT/KT) (MB)    (FT/S)
N MID LAKE BUOY  0350   69 65  190/ 17/ 19 1009.7F   4/ 6
NORTHPORT PIER   0300   70     160/ 10/ 18 1010.2F
SISTER BAY       0256   70     160/ 20/ 26   N/A
KEWAUNEE LAKESHO 0300   65     180/ 10/ 12 1009.9R
SHEBOYGAN LAKESH 0400   69 65  180/ 19/ 20 1010.6F
ATWATER BUOY     0400   71     170/ 16/ 19 1012.2F
MILWAUKEE LAKESH 0400   71     160/ 17/ 19   N/A
S MID LAKE BUOY  0350   73 69  160/ 17/ 21 1011.8F
KENOSHA   LAKESH 0400   71     180/ 13/ 17 1011.2F
$$

TC  - TEMPERATURE IN CELSIUS
VSB - VISIBILITY IN STATUTE MILES
WCI - WIND CHILL INDEX
HX  - HEAT INDEX




USA.gov is the U.S. government's official web portal to all federal, state and local government web resources and services.